When you browse on this site, cookies collect data to enhance your experience and personalize the content and advertising you see.
Visit our Privacy Policy to learn more. By continuing to use the site, you agree to this use of cookies and data.
  • In Hungary
  • List of Countries
  • For 7 days
  • Water Temperature
  • Weather Map
  • News
  • Weather Widgets
  • user-avatar
    Login

    Hourly Weather Balamutowo

    Today, 7 December, Saturday

    Time Temperature Precipitation Wind Pressure Humidity
    00:00 -2°C° 0.1 mm 6 mps 742 mmHg 66%
    01:00 -1°C° 0 mm 5 mps 742 mmHg 66%
    02:00 -2°C° 0.1 mm 6 mps 741 mmHg 67%
    03:00 -2°C° 0.1 mm 6 mps 741 mmHg 67%
    04:00 -2°C° 0.1 mm 6 mps 740 mmHg 67%
    05:00 -2°C° 0.2 mm 6 mps 740 mmHg 67%
    06:00 -2°C° 0.2 mm 6 mps 740 mmHg 68%
    07:00 -2°C° 0 mm 6 mps 739 mmHg 65%
    08:00 -2°C° 0.3 mm 6 mps 739 mmHg 71%
    09:00 -2°C° 0.3 mm 7 mps 739 mmHg 78%
    10:00 -2°C° 0.3 mm 7 mps 738 mmHg 84%
    11:00 -1°C° 0.4 mm 7 mps 738 mmHg 86%
    12:00 0°C° 0.4 mm 7 mps 738 mmHg 88%
    13:00 +1°C° 0 mm 6 mps 737 mmHg 91%
    14:00 +2°C° 0.1 mm 6 mps 737 mmHg 90%
    15:00 +2°C° 0.1 mm 6 mps 737 mmHg 90%
    16:00 +3°C° 0.1 mm 7 mps 737 mmHg 90%
    17:00 +3°C° 0.1 mm 7 mps 737 mmHg 87%
    18:00 +3°C° 0.1 mm 7 mps 738 mmHg 84%
    19:00 +4°C° 0.1 mm 7 mps 738 mmHg 81%
    20:00 +3°C° 0 mm 7 mps 739 mmHg 80%
    21:00 +3°C° 0 mm 7 mps 739 mmHg 79%
    22:00 +2°C° 0 mm 7 mps 739 mmHg 78%
    23:00 +2°C° 0 mm 7 mps 740 mmHg 80%

    Tomorrow, 8 December, Sunday

    Time Temperature Precipitation Wind Pressure Humidity
    00:00 +2°C° 0 mm 7 mps 740 mmHg 81%
    01:00 +2°C° 0 mm 6 mps 741 mmHg 83%
    02:00 +1°C° 0 mm 6 mps 741 mmHg 85%
    03:00 +1°C° 0 mm 6 mps 741 mmHg 87%
    04:00 +1°C° 0 mm 5 mps 741 mmHg 89%
    05:00 +1°C° 0 mm 5 mps 741 mmHg 90%
    06:00 +1°C° 0 mm 4 mps 741 mmHg 92%
    07:00 0°C° 0 mm 4 mps 742 mmHg 93%
    08:00 +1°C° 0 mm 4 mps 742 mmHg 92%
    09:00 +2°C° 0 mm 5 mps 741 mmHg 91%
    10:00 +2°C° 0 mm 5 mps 741 mmHg 90%
    11:00 +3°C° 0 mm 5 mps 741 mmHg 88%
    12:00 +3°C° 0 mm 6 mps 740 mmHg 86%
    13:00 +4°C° 0 mm 6 mps 740 mmHg 83%
    14:00 +4°C° 0 mm 7 mps 739 mmHg 82%
    15:00 +4°C° 0 mm 7 mps 739 mmHg 80%
    16:00 +4°C° 0 mm 7 mps 738 mmHg 79%
    17:00 +4°C° 0 mm 7 mps 738 mmHg 79%
    18:00 +4°C° 0 mm 7 mps 738 mmHg 78%
    19:00 +4°C° 0 mm 7 mps 737 mmHg 78%
    20:00 +4°C° 0.1 mm 7 mps 737 mmHg 80%
    21:00 +4°C° 0.1 mm 7 mps 737 mmHg 81%
    22:00 +4°C° 0.1 mm 7 mps 736 mmHg 82%
    23:00 +5°C° 0 mm 7 mps 736 mmHg 83%

    Day after tomorrow, 9 December, Monday

    Time Temperature Precipitation Wind Pressure Humidity
    00:00 +5°C° 0 mm 7 mps 736 mmHg 85%
    01:00 +5°C° 0 mm 7 mps 736 mmHg 86%
    02:00 +5°C° 0 mm 7 mps 736 mmHg 86%
    03:00 +5°C° 0 mm 6 mps 736 mmHg 86%
    04:00 +5°C° 0 mm 6 mps 736 mmHg 86%
    05:00 +5°C° 0.1 mm 6 mps 736 mmHg 86%
    06:00 +5°C° 0.1 mm 6 mps 736 mmHg 86%
    07:00 +6°C° 0.1 mm 5 mps 736 mmHg 86%
    08:00 +6°C° 0.1 mm 5 mps 736 mmHg 85%
    09:00 +6°C° 0.1 mm 5 mps 736 mmHg 84%
    10:00 +6°C° 0.1 mm 5 mps 736 mmHg 82%
    11:00 +6°C° 0 mm 5 mps 736 mmHg 79%
    12:00 +5°C° 0 mm 6 mps 736 mmHg 76%
    13:00 +5°C° 0 mm 6 mps 737 mmHg 73%
    14:00 +6°C° 0 mm 5 mps 737 mmHg 75%
    15:00 +5°C° 0 mm 5 mps 737 mmHg 77%
    16:00 +4°C° 0 mm 4 mps 737 mmHg 79%
    17:00 +4°C° 0 mm 4 mps 737 mmHg 80%
    18:00 +4°C° 0 mm 4 mps 738 mmHg 81%
    19:00 +3°C° 0 mm 3 mps 738 mmHg 82%
    20:00 +3°C° 0 mm 4 mps 738 mmHg 82%
    21:00 +3°C° 0 mm 4 mps 738 mmHg 82%
    22:00 +3°C° 0 mm 4 mps 738 mmHg 82%
    23:00 +3°C° 0 mm 4 mps 738 mmHg 82%

    10 December, Tuesday

    Time Temperature Precipitation Wind Pressure Humidity
    00:00 +3°C° 0 mm 5 mps 738 mmHg 82%
    01:00 +3°C° 0 mm 5 mps 739 mmHg 83%
    02:00 +3°C° 0.2 mm 5 mps 739 mmHg 84%
    03:00 +3°C° 0.2 mm 6 mps 739 mmHg 84%
    04:00 +3°C° 0.2 mm 6 mps 740 mmHg 85%
    05:00 +3°C° 0 mm 6 mps 740 mmHg 85%
    06:00 +2°C° 0 mm 5 mps 741 mmHg 85%
    07:00 +2°C° 0 mm 5 mps 742 mmHg 85%
    08:00 +2°C° 0 mm 5 mps 742 mmHg 83%
    09:00 +2°C° 0 mm 5 mps 743 mmHg 80%
    10:00 +2°C° 0 mm 5 mps 744 mmHg 78%
    11:00 +2°C° 0.3 mm 5 mps 744 mmHg 82%
    12:00 +2°C° 0.3 mm 5 mps 745 mmHg 87%
    13:00 +2°C° 0.3 mm 5 mps 746 mmHg 92%
    14:00 +2°C° 0.1 mm 5 mps 747 mmHg 89%
    15:00 +1°C° 0.1 mm 6 mps 748 mmHg 86%
    16:00 +1°C° 0.1 mm 6 mps 749 mmHg 83%
    17:00 0°C° 0 mm 5 mps 750 mmHg 81%
    18:00 0°C° 0 mm 4 mps 751 mmHg 80%
    19:00 0°C° 0 mm 3 mps 752 mmHg 78%
    20:00 -1°C° 0 mm 3 mps 752 mmHg 80%
    21:00 -1°C° 0 mm 3 mps 753 mmHg 82%
    22:00 -1°C° 0 mm 2 mps 753 mmHg 84%
    23:00 -1°C° 0 mm 2 mps 754 mmHg 84%

    11 December, Wednesday

    Time Temperature Precipitation Wind Pressure Humidity
    00:00 -1°C° 0 mm 2 mps 754 mmHg 83%
    01:00 -1°C° 0 mm 2 mps 754 mmHg 83%
    02:00 -2°C° 0 mm 2 mps 754 mmHg 83%
    03:00 -2°C° 0 mm 2 mps 754 mmHg 82%
    04:00 -2°C° 0 mm 2 mps 754 mmHg 82%
    05:00 -2°C° 0 mm 2 mps 754 mmHg 81%
    06:00 -2°C° 0 mm 3 mps 754 mmHg 80%
    07:00 -2°C° 0 mm 3 mps 753 mmHg 79%
    08:00 -2°C° 0 mm 4 mps 753 mmHg 75%
    09:00 -2°C° 0 mm 5 mps 753 mmHg 71%
    10:00 -2°C° 0 mm 6 mps 753 mmHg 67%
    11:00 -2°C° 0 mm 6 mps 752 mmHg 67%
    12:00 -1°C° 0 mm 6 mps 752 mmHg 67%
    13:00 -1°C° 0 mm 6 mps 751 mmHg 67%
    14:00 -1°C° 0 mm 6 mps 751 mmHg 71%
    15:00 -1°C° 0 mm 5 mps 751 mmHg 74%
    16:00 -1°C° 0 mm 5 mps 750 mmHg 78%
    17:00 -1°C° 0 mm 5 mps 750 mmHg 81%
    18:00 -1°C° 0 mm 5 mps 750 mmHg 84%
    19:00 -2°C° 0 mm 5 mps 750 mmHg 87%
    20:00 -2°C° 0 mm 5 mps 750 mmHg 88%
    21:00 -2°C° 0 mm 5 mps 750 mmHg 88%
    22:00 -2°C° 0 mm 5 mps 750 mmHg 89%
    23:00 -2°C° 0 mm 4 mps 749 mmHg 90%

    12 December, Thursday

    Time Temperature Precipitation Wind Pressure Humidity
    00:00 -2°C° 0 mm 4 mps 749 mmHg 91%
    01:00 -3°C° 0 mm 4 mps 749 mmHg 93%
    02:00 -3°C° 0 mm 4 mps 748 mmHg 93%
    03:00 -3°C° 0 mm 4 mps 748 mmHg 93%
    04:00 -3°C° 0 mm 4 mps 748 mmHg 92%
    05:00 -3°C° 0 mm 4 mps 748 mmHg 92%
    06:00 -3°C° 0 mm 4 mps 747 mmHg 91%
    07:00 -3°C° 0 mm 4 mps 747 mmHg 90%
    08:00 -3°C° 0 mm 4 mps 747 mmHg 86%
    09:00 -2°C° 0 mm 4 mps 747 mmHg 81%
    10:00 -1°C° 0 mm 4 mps 747 mmHg 76%
    11:00 -1°C° 0 mm 4 mps 747 mmHg 76%
    12:00 0°C° 0 mm 4 mps 746 mmHg 75%
    13:00 0°C° 0 mm 4 mps 746 mmHg 75%
    14:00 -1°C° 0 mm 4 mps 746 mmHg 80%
    15:00 -1°C° 0 mm 4 mps 745 mmHg 85%
    16:00 -2°C° 0 mm 4 mps 745 mmHg 90%
    17:00 -2°C° 0 mm 4 mps 745 mmHg 89%
    18:00 -2°C° 0 mm 4 mps 745 mmHg 88%
    19:00 -2°C° 0 mm 4 mps 745 mmHg 87%
    20:00 -2°C° 0 mm 4 mps 745 mmHg 87%
    21:00 -2°C° 0 mm 4 mps 745 mmHg 87%
    22:00 -3°C° 0 mm 4 mps 745 mmHg 87%
    23:00 -2°C° 0 mm 4 mps 745 mmHg 88%
    Show more